{"data":{"norad_id":51948,"epoch":"2026-09-20T22:59:12.726816Z","epoch_age_seconds":79204,"freshness":"FRESH","line1":"1 51948U 22023C   26263.95778619  .00015367  00000+0  63544-3 0  9993","line2":"2 51948  63.4854 306.1845 0116852 352.2272   7.7025 15.18084963252254","mean_motion":15.18084963,"eccentricity":0.0116852,"inclination_deg":63.4854,"raan_deg":306.1845,"arg_perigee_deg":352.2272,"mean_anomaly_deg":7.7025,"bstar":0.00063544,"rev_number":25225,"period_min":94.856350935346,"perigee_km":431.12044960694,"apogee_km":592.13703086252,"semimajor_km":6889.7657402347,"source":"CELESTRAK","updated_at":"2026-09-21T09:00:08.415497Z"}}